Regional Weather Roundup
Issued by NWS Bismarck, ND

Home | Current Version | Previous Version | Text Only | Print | Product List | Glossary On
Versions: 1 2 3 4 5 6 7 8 9 10 11 12 13 14 15 16 17 18 19 20 21 22 23 24 25 26 27 28 29 30 31 32 33 34 35 36 37 38 39 40 41 42 43 44 45 46 47 48 49 50
000
ASUS43 KBIS 310620
RWRBIS

NWR BROADCAST TEXT
NATIONAL WEATHER SERVICE BISMARCK ND
100 AM CDT FRI OCT 31 2014

NOTE: "FAIR" INDICATES FEW OR NO CLOUDS BELOW 12,000 FEET WITH NO
SIGNIFICANT WEATHER AND/OR OBSTRUCTIONS TO VISIBILITY.


CITY           SKY/WX    TMP DP  RH WIND       PRES   REMARKS
WILLISTON      CLOUDY    29  23  78 SE10      30.49F WCI  20
MINOT          CLEAR     18  14  84 CALM      30.54F
MINOT AFB      CLEAR     14  13  95 S3        30.54F
BISMARCK       CLEAR     20  17  88 CALM      30.58F
DICKINSON      CLOUDY    29  25  85 SE16      30.47F WCI  17
GARRISON         N/A     18  16  92 CALM      30.55S
HETTINGER ARPT CLOUDY    30  26  85 SE10      30.51S
JAMESTOWN      CLEAR     18  14  84 NE6       30.57  WCI  10
BEACH            N/A     32  32 100 SE22G28   30.44S WCI  19
CARRINGTON     FAIR      18  18 100 NE6       30.58S WCI   9
CROSBY         FAIR      19  19 100 SE7       30.50F WCI  10
HARVEY         FAIR      18  16  93 CALM      30.58R
HAZEN          FAIR      18  14  86 SE6       30.57S WCI   9
LINTON         FAIR      18  18 100 E5        30.57S WCI  11
MANDAN         MOCLDY    21  19  93 CALM      30.57S
OAKES            N/A     19  18  93 N8        30.57S WCI   9
RUGBY          FAIR      19  16  86 E7        30.57F WCI  10
STANLEY        FAIR      18  18 100 SE7       30.51F WCI   8
TIOGA          FAIR      12  12 100 E6        30.52F WCI   3
$$

CITY           SKY/WX    TMP DP  RH WIND       PRES   REMARKS
GRAND FORKS    CLEAR     19  14  81 N7        30.59R WCI  10
GRAND FORKS AF CLEAR     20  15  82 N6        30.60R WCI  12
DEVILS LAKE    CLEAR     18   9  68 NE3       30.57S
FARGO          CLEAR     23  18  81 NW12      30.57R WCI  12
CANDO          FAIR      16  14  93 N3        30.59F
CAVALIER       FAIR      21  16  79 N5        30.61S WCI  15
GRAFTON        FAIR      19  14  79 N7        30.61R WCI  10
GWINNER        CLEAR     25  18  74 N8        30.58S WCI  16
LANGDON        FAIR       9   7  92 CALM      30.58R
ROLLA          FAIR      14  10  85 CALM      30.57F
WALHALLA       FAIR      19  16  86 NW3       30.61S
$$

CITY           SKY/WX    TMP DP  RH WIND       PRES   REMARKS
ABERDEEN       CLEAR     21  17  84 N6        30.57R WCI  13
MOBRIDGE       CLEAR     22  18  85 NE7       30.54F WCI  13
BUFFALO          N/A     33  28  81 SE14      30.39F
RAPID CITY     CLOUDY    31  28  89 SE9       30.49R
GLASGOW        CLOUDY    36  30  79 SE22G30   30.33F
SIDNEY         CLOUDY    34  27  75 SE16G23   30.47F
WOLF POINT     CLOUDY    38  30  73 SE16G22   30.40F
GLENDIVE       CLOUDY    36  28  75 SE15      30.42F
MILES CITY     CLEAR     35  30  82 SE14      30.34F
BAKER          CLOUDY    33  28  81 SE20G31   30.42F
$$

CITY           SKY/WX    TMP DP  RH WIND       PRES   REMARKS
BILLINGS       CLEAR     40  32  73 N7        30.17F
GREAT FALLS    CLOUDY    48  32  53 E3        30.02F
REGINA         PTCLDY    25  21  86 SE22      30.41F WCI  10
ESTEVAN        CLEAR     19  18  93 SE6       30.51F WCI  11
$$




USA.gov is the U.S. government's official web portal to all federal, state and local government web resources and services.